Weather in Argunsk

Russia / Zabaykalsky Krai     51°34′40″N   120°01′06″E
temp.,
°C
wind,
m/s
gust,
m/s
humid.,
%
clouds,
%
prec.,
mm/h
press.,
hPa
HPBL,
m
9 december, thu
thu900:00−17sw1198100 0.0 102219
03:00−15ssw1196100 0.0 102033
06:00−16ssw2298100 0.0 102022
09:00−15ssw2398100 0.0 102142
12:00−10ssw1288100 0.0 1021115
15:00−9s1188100 0.0 102046
18:00−14ssw1197100 0.0 10249
21:00−17wsw009898 0.0 10279
10 december, fri
fri1000:00−19wnw009937 0.0 10299
03:00−20wnw001007 0.0 10319
06:00−21ssw111006 0.0 10329
09:00−22s11100100 0.0 10349
12:00−15s128149 0.0 1031107
15:00−12s128081 0.0 1029110
18:00−15ssw1194100 0.0 103023
21:00−16sw2195100 0.0 103025
11 december, sat
sat1100:00−20sw2210024 0.0 103111
03:00−21sw2110035 0.0 103113
06:00−23ssw2110029 0.0 103117
09:00−23ssw1199100 0.0 103118
12:00−17ssw238261 0.0 1029181
15:00−14ssw2378100 0.0 1026212
18:00−21ssw2210092 0.0 102922
21:00−23sw1110011 0.0 102910
12 december, sun
sun1200:00−25w0010091 0.0 10309
03:00−23w119990 0.0 103011
06:00−24w119888 0.0 103011
09:00−25w119738 0.0 103210
12:00−18wnw13715 0.0 1029296
15:00−15wnw13632 0.0 1027418
18:00−23sw22945 0.0 103013
21:00−25ssw2299100 0.0 102929
13 december, mon
mon1300:00−22s2292100 0.0 102566
03:00−20ssw2396100 0.1 1021145
06:00−18ssw2398100 0.6 1017153
09:00−19ssw1199100 0.8 101613
12:00−16ssw128875 0.0 1015240
15:00−15ssw128430 0.0 1015244
18:00−21sw1110031 0.0 10179
21:00−24ssw1110050 0.0 10189